Date String (YYYY-MM-DD hh:mm:ss) UTC,Instrument flags,Ambient pressure (hPa),Sample flow (lpm),Bypass flow (lpm),Sample temperature (°C),Ambient temperature (°C),ASC tube jacket temperature (°C),LED temperature (°C),Box temperature (°C),Sample RH (%),Span deviation,Mass concentration (μg/m³),Mass concentration (μg/m³),Mass concentration (μg/m³)
DateTimeUTC,F1_M11,P_M11,Q1_M11,Q2_M11,T1_M11,T2_M11,T3_M11,T4_M11,T5_M11,U1_M11,ZSPAN_M11,X0_M11,X2_M11,X1_M11
2023-05-02 20:00:00,,0829.0,5.02,0.00,29.4,28.1,00.0,37.7,31.0,15.6,0003.8,0024.45,0013.93,0012.04
2023-05-02 20:01:00,,0829.0,5.01,0.00,29.4,28.1,00.0,37.7,30.9,15.6,0003.7,0024.98,0013.99,0012.07
2023-05-02 20:02:00,,0829.0,5.00,0.00,29.4,28.1,00.0,37.7,30.9,15.6,0003.5,0026.17,0014.05,0012.09
2023-05-02 20:03:00,,0829.0,4.99,0.00,29.4,28.1,00.0,37.7,31.0,15.8,0003.5,0026.30,0014.11,0012.12
2023-05-02 20:04:00,,0829.0,5.00,0.00,29.4,28.1,00.0,37.7,30.9,15.8,0003.7,0026.28,0014.16,0012.14
2023-05-02 20:05:00,,0829.0,5.00,0.00,29.4,28.1,00.0,37.7,30.9,15.6,0003.8,0026.42,0014.23,0012.15
2023-05-02 20:06:00,,0829.0,5.01,0.00,29.4,28.1,00.0,37.7,31.0,15.5,0003.8,0026.21,0014.23,0012.16
2023-05-02 20:07:00,,0829.0,5.00,0.00,29.4,28.1,00.0,37.7,31.0,15.6,0003.7,0026.18,0014.24,0012.18
2023-05-02 20:08:00,,0829.0,5.01,0.00,29.4,28.1,00.0,37.7,31.0,15.6,0003.3,0025.83,0014.23,0012.21
2023-05-02 20:09:00,,0828.9,4.99,0.00,29.4,28.1,00.0,37.8,31.0,15.6,0003.3,0025.46,0014.20,0012.22
2023-05-02 20:10:00,,0829.0,4.99,0.00,29.5,28.2,00.0,37.8,31.1,15.7,0003.2,0025.58,0014.21,0012.26
2023-05-02 20:11:00,,0829.0,5.00,0.00,29.5,28.2,00.0,37.8,31.1,15.8,0003.2,0026.24,0014.22,0012.27
2023-05-02 20:12:00,,0828.9,5.00,0.00,29.5,28.2,00.0,37.8,31.1,15.6,0003.3,0026.61,0014.18,0012.26
2023-05-02 20:13:00,,0829.0,5.00,0.00,29.5,28.2,00.0,37.8,31.1,15.7,0003.5,0026.61,0014.16,0012.24
2023-05-02 20:14:00,,0829.0,5.00,0.00,29.5,28.2,00.0,37.8,31.1,15.7,0003.6,0027.18,0014.15,0012.22
2023-05-02 20:15:00,,0829.0,5.01,0.00,29.5,28.2,00.0,37.8,31.0,15.7,0003.7,0027.16,0014.14,0012.20
2023-05-02 20:16:00,,0829.0,5.01,0.00,29.5,28.1,00.0,37.8,31.0,15.6,0003.7,0026.59,0014.15,0012.23
2023-05-02 20:17:00,,0829.0,4.99,0.00,29.5,28.1,00.0,37.8,31.0,15.6,0003.8,0027.15,0014.18,0012.24
2023-05-02 20:18:00,,0828.9,4.99,0.00,29.4,28.0,00.0,37.8,31.0,15.6,0004.1,0029.44,0014.30,0012.30
2023-05-02 20:19:00,,0828.9,4.98,0.00,29.4,28.0,00.0,37.8,31.0,15.6,0004.1,0030.42,0014.32,0012.32
2023-05-02 20:20:00,,0829.0,5.01,0.00,29.4,28.0,00.0,37.8,31.0,15.7,0004.3,0031.47,0014.33,0012.33
2023-05-02 20:21:00,,0829.0,5.01,0.00,29.5,28.0,00.0,37.8,31.0,15.7,0004.3,0032.41,0014.36,0012.30
2023-05-02 20:22:00,,0828.9,5.00,0.00,29.4,28.0,00.0,37.8,31.0,15.7,0004.4,0031.80,0014.34,0012.28
2023-05-02 20:23:00,,0829.0,4.99,0.00,29.5,28.1,00.0,37.8,31.0,15.7,0004.5,0031.19,0014.32,0012.27
2023-05-02 20:24:00,,0829.0,5.00,0.00,29.5,28.1,00.0,37.9,31.0,15.8,0004.5,0030.92,0014.34,0012.25
2023-05-02 20:25:00,,0828.9,5.00,0.00,29.5,28.2,00.0,37.9,31.1,15.9,0004.5,0029.72,0014.21,0012.23
2023-05-02 20:26:00,,0828.9,5.00,0.00,29.5,28.2,00.0,37.9,31.1,15.7,0004.5,0030.62,0014.19,0012.24
2023-05-02 20:27:00,,0828.9,5.00,0.00,29.5,28.2,00.0,37.9,31.1,15.6,0004.6,0031.44,0014.12,0012.20
2023-05-02 20:28:00,,0828.9,5.01,0.00,29.5,28.2,00.0,37.9,31.1,15.6,0004.7,0032.10,0014.07,0012.18
2023-05-02 20:29:00,,0828.8,5.01,0.00,29.5,28.2,00.0,37.9,31.1,15.6,0004.7,0029.92,0013.95,0012.11
2023-05-02 20:30:00,,0828.8,5.00,0.00,29.5,28.2,00.0,37.9,31.1,15.8,0004.8,0028.90,0013.90,0012.01
2023-05-02 20:31:00,,0828.8,5.01,0.00,29.5,28.2,00.0,37.9,31.1,15.7,0004.7,0028.31,0013.89,0011.95
2023-05-02 20:32:00,,0828.8,5.00,0.00,29.6,28.2,00.0,37.9,31.2,15.6,0004.5,0027.75,0013.90,0011.92
2023-05-02 20:33:00,,0828.7,5.00,0.00,29.6,28.2,00.0,37.9,31.2,15.6,0004.2,0027.93,0013.85,0011.91
2023-05-02 20:34:00,,0828.8,5.00,0.00,29.6,28.2,00.0,37.9,31.2,15.5,0003.9,0028.57,0013.82,0011.87
2023-05-02 20:35:00,,0828.7,5.00,0.00,29.6,28.2,00.0,37.9,31.2,15.5,0003.9,0028.35,0013.77,0011.87
2023-05-02 20:36:00,,0828.7,4.99,0.00,29.6,28.2,00.0,38.0,31.2,15.6,0003.8,0028.66,0013.78,0011.85
2023-05-02 20:37:00,,0828.7,5.00,0.00,29.6,28.2,00.0,38.0,31.1,15.7,0003.8,0027.23,0013.69,0011.81
2023-05-02 20:38:00,,0828.6,5.00,0.00,29.6,28.2,00.0,38.0,31.1,15.6,0003.6,0026.54,0013.68,0011.78
2023-05-02 20:39:00,,0828.6,5.00,0.00,29.6,28.2,00.0,38.0,31.2,15.6,0003.6,0026.60,0013.67,0011.76
2023-05-02 20:40:00,,0828.6,5.00,0.00,29.6,28.3,00.0,38.0,31.2,15.6,0003.6,0027.11,0013.66,0011.75
2023-05-02 20:41:00,,0828.6,5.00,0.00,29.7,28.3,00.0,38.0,31.2,15.8,0003.6,0027.64,0013.65,0011.75
2023-05-02 20:42:00,,0828.6,5.00,0.00,29.7,28.4,00.0,38.0,31.3,15.8,0003.9,0026.88,0013.62,0011.75
2023-05-02 20:43:00,,0828.6,5.00,0.00,29.7,28.4,00.0,38.0,31.3,15.7,0004.3,0026.71,0013.54,0011.74
2023-05-02 20:44:00,,0828.6,5.01,0.00,29.7,28.5,00.0,38.0,31.3,15.6,0004.3,0026.72,0013.56,0011.74
2023-05-02 20:45:00,,0828.6,5.00,0.00,29.7,28.5,00.0,38.0,31.3,15.4,0004.6,0026.07,0013.57,0011.75
2023-05-02 20:46:00,,0828.6,4.98,0.00,29.7,28.5,00.0,38.1,31.3,15.4,0004.6,0025.66,0013.54,0011.75
2023-05-02 20:47:00,,0828.6,5.00,0.00,29.7,28.5,00.0,38.1,31.3,15.4,0004.5,0025.12,0013.56,0011.74
2023-05-02 20:48:00,,0828.7,5.00,0.00,29.8,28.5,00.0,38.1,31.3,15.3,0004.5,0025.00,0013.61,0011.75
2023-05-02 20:49:00,,0828.7,5.00,0.00,29.8,28.5,00.0,38.1,31.3,15.4,0004.5,0024.88,0013.63,0011.74
2023-05-02 20:50:00,,0828.7,5.00,0.00,29.8,28.5,00.0,38.1,31.3,15.4,0004.4,0023.93,0013.64,0011.74
2023-05-02 20:51:00,,0828.6,5.00,0.00,29.8,28.5,00.0,38.1,31.3,15.6,0004.1,0022.81,0013.52,0011.69
2023-05-02 20:52:00,,0828.7,5.01,0.00,29.8,28.4,00.0,38.1,31.3,15.6,0004.0,0022.28,0013.45,0011.67
2023-05-02 20:53:00,,0828.7,5.00,0.00,29.8,28.5,00.0,38.1,31.3,15.3,0003.9,0021.96,0013.41,0011.71
2023-05-02 20:54:00,,0828.7,5.01,0.00,29.8,28.4,00.0,38.1,31.4,15.4,0003.6,0021.77,0013.46,0011.76
2023-05-02 20:55:00,,0828.7,5.00,0.00,29.8,28.4,00.0,38.1,31.4,15.4,0003.9,0021.73,0013.46,0011.80
2023-05-02 20:56:00,,0828.7,4.99,0.00,29.8,28.5,00.0,38.1,31.4,15.4,0004.1,0021.43,0013.48,0011.80
2023-05-02 20:57:00,,0828.7,5.00,0.00,29.8,28.5,00.0,38.2,31.4,15.5,0004.1,0021.97,0013.46,0011.77
2023-05-02 20:58:00,,0828.8,5.00,0.00,29.8,28.5,00.0,38.2,31.4,15.3,0004.2,0022.10,0013.42,0011.74
2023-05-02 20:59:00,,0828.8,5.00,0.00,29.8,28.5,00.0,38.2,31.4,15.3,0004.2,0021.66,0013.32,0011.73
